Tracking 35015 objects as of 13-Aug-2026
HD Live streaming from Space Station
objects crossing your sky now

ICEYE-X36

Track ICEYE-X36 now!
10-day predictions
ICEYE-X36 is classified as:


NORAD ID: 59103
Int'l Code: 2024-043F
Launch date: March 4, 2024
Source: United States (US)
Launch site: AIR FORCE WESTERN TEST RANGE (AFWTR)

Uplink (MHz):
Downlink (MHz):
Beacon (MHz):
Mode:
Call sign:
Status: Unknown

Your satellite tracking list
Your tracking list is empty




NASA's NSSDC Master Catalog

Two Line Element Set (TLE):
1 59103U 24043F   26225.14629365  .00001946  00000-0  13284-3 0  9995
2 59103  97.8438   4.2732 0007196 122.1141 238.0785 15.07415657133722
Source of the keplerian elements: AFSPC